Lid_Strength_Index
2 1 1 1 2 2 2 2 3 3 3 2 2 2 2 2 2 2 3 3 3 3 3 3 2 2 3 7 5 1 -2 -2 1 3 5 6 7 8 9 8 8 9 8 8 8 8 9
2 2 2 1 2 2 2 2 2 2 2 3 3 3 2 2 2 2 3 3 2 3 3 3 2 1 4 10 3 1 -0 0 1 3 5 5 7 6 8 8 8 8 8 8 8 8 8
2 2 2 2 2 2 2 2 2 2 2 2 2 3 3 3 3 3 3 2 2 3 2 2 2 2 6 9 3 2 1 3 3 3 5 5 5 7 7 9 8 8 10 9 9 9 10
2 2 2 2 2 2 2 2 2 2 3 2 2 3 3 4 3 3 3 2 3 3 2 2 1 2 8 5 3 2 2 3 3 3 4 4 4 6 7 7 8 10 11 12 10 10 9
2 2 2 2 2 2 2 2 2 3 3 3 3 4 3 3 3 3 3 3 2 2 2 1 3 5 7 1 4 4 3 5 5 5 4 4 5 7 7 9 10 11 12 12 11 9 10
2 3 3 2 2 2 2 2 3 3 3 3 3 3 3 4 3 3 3 3 2 1 2 2 3 6 5 6 3 4 4 5 6 6 6 6 7 8 8 9 13 13 12 12 12 10 10
3 3 3 3 3 3 3 3 3 3 3 3 3 4 4 4 3 3 4 5 6 7 4 8 7 7 6 3 4 6 5 5 5 7 9 8 9 11 10 10 10 10 11 12 10 9 10
3 3 3 3 3 3 3 3 4 4 4 4 4 4 4 4 3 3 5 5 6 6 9 7 6 6 5 4 7 6 5 7 8 10 9 9 11 9 9 10 11 11 12 12 10 9 9
4 4 3 3 3 3 4 4 4 5 4 4 4 4 4 3 3 4 4 5 4 5 8 8 7 7 6 5 7 7 6 7 8 10 10 11 10 9 10 10 10 10 11 11 12 10 9
4 4 4 3 3 4 4 4 5 5 5 5 5 4 4 4 4 5 5 3 4 4 10 9 8 6 5 5 8 4 5 7 9 10 10 10 9 10 10 10 10 12 9 10 11 12 14
4 4 4 4 4 4 4 5 5 5 5 5 5 4 4 4 5 5 4 3 4 4 15 8 8 5 6 7 7 7 5 6 9 9 10 10 10 10 10 10 8 10 9 10 10 12 12
4 4 4 4 4 5 4 5 5 5 5 5 4 4 4 5 5 4 4 4 4 10 16 10 8 8 8 7 7 6 6 5 6 8 9 9 8 9 9 8 7 8 9 10 11 12 15
4 4 4 5 4 5 5 5 5 5 5 5 5 4 5 5 6 5 4 4 10 14 9 11 10 9 9 9 9 8 9 9 10 12 11 10 9 8 7 8 8 9 10 14 15 15 15
4 4 4 5 5 5 5 6 5 5 5 5 5 5 5 5 4 4 5 8 15 12 11 9 9 9 11 9 9 9 10 10 8 10 11 12 13 9 7 9 10 9 10 14 19 17 15
4 4 4 5 5 6 6 6 6 6 6 6 6 4 4 3 4 5 7 13 12 12 10 10 10 11 11 10 10 10 10 10 9 8 11 13 12 8 8 7 8 10 12 10 13 12 15
4 3 4 4 5 6 6 6 6 6 6 6 6 5 4 4 5 6 9 12 11 9 9 9 12 10 12 11 11 11 11 9 9 7 7 10 13 9 8 7 7 8 8 13 13 19 19
5 5 4 4 5 6 6 6 6 6 7 7 6 6 4 5 4 7 11 12 11 9 9 10 11 11 11 11 10 11 11 9 8 8 7 8 11 11 9 10 10 10 11 11 12 13 16
6 6 5 5 5 6 6 7 7 7 7 8 7 9 5 5 9 11 11 11 11 10 9 10 10 10 10 10 11 11 11 9 7 7 10 8 11 13 12 8 7 8 10 10 14 15 14
7 6 6 6 6 7 7 7 7 7 8 9 10 9 5 7 12 13 12 12 11 11 11 11 11 10 10 10 12 10 10 8 7 7 9 9 12 15 13 11 9 11 10 9 10 12 15
7 7 6 6 6 7 8 7 7 8 8 8 11 13 11 11 11 13 14 14 13 10 11 11 11 10 11 11 10 11 11 9 8 8 7 7 11 13 15 12 11 12 11 10 11 16 14
8 7 7 6 7 8 8 8 7 8 8 10 12 13 13 15 14 14 13 13 14 14 11 11 12 11 11 12 12 12 10 10 9 8 8 8 13 11 11 10 10 11 11 10 12 12 15
8 8 7 6 7 8 8 8 7 8 9 10 13 13 12 13 13 14 14 14 14 13 13 13 13 11 11 12 11 12 11 11 11 9 9 8 12 11 13 11 11 12 11 11 11 11 11
8 8 7 7 7 8 8 8 8 8 10 12 11 11 11 14 14 15 15 14 14 13 13 11 11 12 12 11 9 8 7 8 8 10 9 10 11 13 15 11 11 14 11 10 10 9 10
8 8 7 7 7 7 8 8 8 8 10 11 12 12 13 16 14 15 14 14 14 14 14 12 11 12 10 8 8 7 7 7 7 8 8 10 11 12 15 13 19 10 8 8 10 9 8
8 8 7 7 7 7 8 8 8 8 9 10 11 12 13 16 14 15 14 14 13 13 14 12 11 9 8 9 12 12 10 11 10 9 9 9 11 14 17 16 12 11 9 10 11 10 7
8 8 8 7 7 7 8 8 8 8 9 10 11 11 12 15 16 14 14 14 15 15 13 12 10 8 8 10 11 14 15 12 13 13 9 10 10 13 15 18 20 12 9 7 8 14 7
7 8 8 7 7 7 7 8 8 8 9 10 11 11 12 15 13 13 15 15 13 14 14 13 11 11 8 11 12 14 14 11 15 15 14 14 13 15 15 16 13 8 8 7 15 12 7
7 7 7 7 6 7 7 7 8 8 8 10 11 10 12 14 14 13 12 13 13 13 15 13 13 11 10 11 12 12 13 11 12 11 13 14 14 15 14 16 17 7 8 12 8 6 6
7 7 7 7 6 6 7 7 7 8 8 9 11 10 10 13 13 11 11 10 11 10 12 11 12 11 9 9 10 10 11 11 12 14 9 13 11 13 12 12 7 6 7 5 5 7 6